AA8154 KMCO-KCLT

Flight info

Callsign AA8154
Flight time 1h 11m
Altitude 35000
Route FATHE3 VIYAP CHECR STOCR4
Aircraft B738/M-SDE2E3FGHIRWXY/LB1

Departure

Time 2026-05-07 15:47
Airport Orlando International Airport (KMCO)

Arrival

Time 2026-05-07 16:58
Airport Charlotte Douglas International Airport (KCLT)
Time Latitude Longitude Altitude Speed Heading
2026-05-07 15:19 28.42561 -81.31501 103 ft 0 kts
2026-05-07 15:34 28.42553 -81.31501 102 ft 3 kts
2026-05-07 15:34 28.42534 -81.31502 101 ft 3 kts
2026-05-07 15:34 28.42516 -81.31503 101 ft 3 kts 338°
2026-05-07 15:34 28.42508 -81.31499 102 ft 0 kts 305°
2026-05-07 15:38 28.42509 -81.31503 102 ft 1 kts 296°
2026-05-07 15:38 28.42508 -81.31516 102 ft 3 kts 265°
2026-05-07 15:38 28.42506 -81.31564 103 ft 10 kts 274°
2026-05-07 15:38 28.42567 -81.31616 101 ft 14 kts 346°
2026-05-07 15:39 28.42680 -81.31646 103 ft 19 kts 347°
2026-05-07 15:39 28.42824 -81.31681 103 ft 23 kts 348°
2026-05-07 15:39 28.42943 -81.31742 103 ft 14 kts 310°
2026-05-07 15:39 28.43000 -81.31825 103 ft 13 kts 326°
2026-05-07 15:40 28.43073 -81.31841 104 ft 10 kts
2026-05-07 15:40 28.43149 -81.31839 103 ft 12 kts
2026-05-07 15:40 28.43242 -81.31841 102 ft 15 kts 359°
2026-05-07 15:40 28.43336 -81.31842 102 ft 10 kts 359°
2026-05-07 15:41 28.43400 -81.31843 103 ft 7 kts 360°
2026-05-07 15:41 28.43453 -81.31843 104 ft 8 kts 360°
2026-05-07 15:41 28.43512 -81.31843 105 ft 10 kts 359°
2026-05-07 15:41 28.43591 -81.31844 106 ft 13 kts 359°
2026-05-07 15:42 28.43694 -81.31846 106 ft 17 kts 359°
2026-05-07 15:42 28.43808 -81.31847 107 ft 15 kts 359°
2026-05-07 15:42 28.43912 -81.31848 109 ft 14 kts 355°
2026-05-07 15:42 28.44002 -81.31879 111 ft 14 kts 342°
2026-05-07 15:43 28.44101 -81.31900 109 ft 16 kts 359°
2026-05-07 15:43 28.44223 -81.31901 108 ft 19 kts 360°
2026-05-07 15:43 28.44357 -81.31903 108 ft 20 kts
2026-05-07 15:43 28.44498 -81.31904 105 ft 20 kts
2026-05-07 15:44 28.44610 -81.31905 102 ft 14 kts 359°
2026-05-07 15:44 28.44683 -81.31910 102 ft 7 kts 341°
2026-05-07 15:44 28.44712 -81.31945 101 ft 6 kts 287°
2026-05-07 15:44 28.44728 -81.31992 103 ft 6 kts 309°
2026-05-07 15:45 28.44771 -81.32011 103 ft 7 kts 353°
2026-05-07 15:45 28.44818 -81.32040 102 ft 8 kts 302°
2026-05-07 15:45 28.44825 -81.32105 101 ft 7 kts 272°
2026-05-07 15:45 28.44826 -81.32169 101 ft 8 kts 269°
2026-05-07 15:46 28.44778 -81.32226 103 ft 4 kts 186°
2026-05-07 15:46 28.44659 -81.32227 105 ft 50 kts 180°
2026-05-07 15:46 28.44028 -81.32221 110 ft 128 kts 179°
2026-05-07 15:47 28.42944 -81.32214 305 ft 175 kts 181°
2026-05-07 15:47 28.41653 -81.32101 874 ft 200 kts 158°
2026-05-07 15:47 28.40699 -81.30903 1672 ft 221 kts 114°
2026-05-07 15:47 28.40736 -81.29209 2464 ft 216 kts 65°
2026-05-07 15:48 28.41779 -81.28055 3233 ft 212 kts 19°
2026-05-07 15:48 28.43135 -81.27616 4121 ft 194 kts 12°
2026-05-07 15:48 28.44401 -81.27246 4823 ft 185 kts
2026-05-07 15:48 28.45701 -81.27021 5059 ft 203 kts
2026-05-07 15:49 28.47206 -81.27004 5036 ft 228 kts 353°
2026-05-07 15:49 28.48851 -81.27261 5022 ft 252 kts 347°
2026-05-07 15:49 28.50698 -81.27669 4997 ft 280 kts 346°
2026-05-07 15:49 28.52591 -81.28108 5144 ft 274 kts 346°
2026-05-07 15:50 28.54498 -81.28547 5604 ft 283 kts 346°
2026-05-07 15:50 28.56427 -81.28993 6100 ft 286 kts 346°
2026-05-07 15:50 28.57724 -81.29295 6437 ft 287 kts 345°
2026-05-07 15:50 28.59675 -81.29751 6931 ft 289 kts 345°
2026-05-07 15:51 28.61639 -81.30230 7463 ft 289 kts 345°
2026-05-07 15:51 28.63640 -81.30600 7990 ft 294 kts 352°
2026-05-07 15:51 28.65722 -81.30580 8525 ft 298 kts
2026-05-07 15:51 28.67659 -81.30309 9028 ft 301 kts
2026-05-07 15:52 28.69737 -81.30036 9588 ft 301 kts
2026-05-07 15:52 28.71835 -81.29874 10125 ft 303 kts 359°
2026-05-07 15:52 28.73949 -81.29726 10631 ft 306 kts
2026-05-07 15:52 28.76081 -81.29540 11147 ft 308 kts
2026-05-07 15:53 28.78225 -81.29341 11620 ft 309 kts
2026-05-07 15:53 28.80376 -81.29153 12099 ft 311 kts 360°
2026-05-07 15:53 28.82572 -81.28967 12591 ft 313 kts 360°
2026-05-07 15:53 28.84759 -81.28889 13102 ft 317 kts 351°
2026-05-07 15:54 28.86985 -81.29082 13617 ft 325 kts 351°
2026-05-07 15:54 28.89269 -81.29286 14110 ft 333 kts 351°
2026-05-07 15:54 28.91664 -81.29490 14594 ft 340 kts 351°
2026-05-07 15:54 28.94079 -81.29693 15083 ft 347 kts 351°
2026-05-07 15:55 28.96507 -81.29900 15571 ft 353 kts 351°
2026-05-07 15:55 28.98977 -81.30115 16083 ft 358 kts 349°
2026-05-07 15:55 29.01467 -81.30430 16581 ft 363 kts 349°
2026-05-07 15:55 29.03998 -81.30683 17092 ft 368 kts 349°
2026-05-07 15:56 29.06560 -81.30935 17605 ft 371 kts 349°
2026-05-07 15:56 29.09141 -81.31229 18125 ft 374 kts 348°
2026-05-07 15:56 29.11757 -81.31470 18618 ft 379 kts 351°
2026-05-07 15:56 29.14395 -81.31615 19064 ft 382 kts 351°
2026-05-07 15:57 29.17050 -81.31787 19563 ft 383 kts 351°
2026-05-07 15:57 29.19718 -81.31956 20069 ft 384 kts 351°
2026-05-07 15:57 29.22392 -81.32111 20584 ft 386 kts 351°
2026-05-07 15:57 29.25076 -81.32268 21114 ft 386 kts 351°
2026-05-07 15:58 29.27764 -81.32430 21653 ft 387 kts 350°
2026-05-07 15:58 29.30453 -81.32595 22210 ft 387 kts 349°
2026-05-07 15:58 29.33149 -81.32757 22760 ft 388 kts 349°
2026-05-07 15:58 29.35842 -81.32917 23328 ft 388 kts 349°
2026-05-07 15:59 29.38530 -81.33079 23851 ft 387 kts 349°
2026-05-07 15:59 29.41221 -81.33241 24326 ft 386 kts 349°
2026-05-07 15:59 29.43903 -81.33403 24807 ft 386 kts 349°
2026-05-07 15:59 29.46581 -81.33565 25299 ft 385 kts 349°
2026-05-07 16:00 29.49251 -81.33726 25789 ft 384 kts 349°
2026-05-07 16:00 29.51914 -81.33886 26310 ft 382 kts 349°
2026-05-07 16:00 29.54555 -81.34045 26883 ft 379 kts 348°
2026-05-07 16:00 29.57169 -81.34202 27448 ft 375 kts 348°
2026-05-07 16:01 29.59764 -81.34359 28026 ft 371 kts 348°
2026-05-07 16:01 29.62327 -81.34514 28622 ft 366 kts 347°
2026-05-07 16:01 29.64851 -81.34666 29201 ft 362 kts 347°
2026-05-07 16:01 29.67352 -81.34810 29759 ft 359 kts 347°
2026-05-07 16:02 29.69837 -81.34949 30248 ft 356 kts 347°
2026-05-07 16:02 29.72299 -81.35089 30682 ft 352 kts 347°
2026-05-07 16:02 29.74732 -81.35229 31119 ft 349 kts 347°
2026-05-07 16:02 29.77144 -81.35368 31551 ft 346 kts 347°
2026-05-07 16:03 29.79578 -81.35513 31673 ft 350 kts 347°
2026-05-07 16:03 29.81991 -81.35647 32153 ft 345 kts 347°
2026-05-07 16:03 29.84370 -81.35778 32633 ft 339 kts 347°
2026-05-07 16:03 29.86707 -81.35913 33112 ft 334 kts 347°
2026-05-07 16:04 29.89005 -81.36047 33579 ft 328 kts 347°
2026-05-07 16:04 29.91280 -81.36182 33938 ft 329 kts 347°
2026-05-07 16:04 29.93581 -81.36317 34227 ft 331 kts 347°
2026-05-07 16:04 29.95892 -81.36449 34515 ft 333 kts 347°
2026-05-07 16:05 29.98209 -81.36581 34799 ft 334 kts 347°
2026-05-07 16:05 30.00537 -81.36715 35041 ft 338 kts 347°
2026-05-07 16:05 30.02927 -81.36860 35056 ft 349 kts 347°
2026-05-07 16:05 30.05387 -81.37005 35071 ft 360 kts 348°
2026-05-07 16:06 30.07931 -81.37149 35071 ft 372 kts 348°
2026-05-07 16:06 30.10554 -81.37298 35070 ft 383 kts 348°
2026-05-07 16:06 30.13243 -81.37452 35057 ft 392 kts 349°
2026-05-07 16:07 30.18804 -81.37774 35062 ft 408 kts 349°
2026-05-07 16:07 30.24598 -81.38109 35073 ft 425 kts 349°
2026-05-07 16:08 30.30625 -81.38457 35078 ft 442 kts 350°
2026-05-07 16:08 30.36309 -81.38787 35077 ft 457 kts 350°
2026-05-07 16:09 30.42673 -81.39152 35071 ft 462 kts 350°
2026-05-07 16:09 30.49114 -81.39520 35069 ft 464 kts 350°
2026-05-07 16:10 30.55565 -81.39845 35092 ft 464 kts 350°
2026-05-07 16:10 30.62007 -81.40194 35089 ft 464 kts 350°
2026-05-07 16:11 30.68465 -81.40532 35095 ft 464 kts 350°
2026-05-07 16:11 30.74912 -81.40875 35076 ft 463 kts 350°
2026-05-07 16:12 30.81351 -81.41218 35063 ft 463 kts 350°
2026-05-07 16:12 30.87795 -81.41560 35048 ft 463 kts 350°
2026-05-07 16:13 30.94236 -81.41904 35040 ft 463 kts 350°
2026-05-07 16:13 31.00661 -81.42246 35034 ft 462 kts 350°
2026-05-07 16:14 31.07101 -81.42590 35041 ft 462 kts 350°
2026-05-07 16:14 31.13527 -81.42934 35044 ft 462 kts 350°
2026-05-07 16:15 31.19953 -81.43278 35043 ft 462 kts 350°
2026-05-07 16:15 31.26424 -81.42885 35060 ft 477 kts
2026-05-07 16:16 31.32805 -81.40485 35052 ft 481 kts 12°
2026-05-07 16:16 31.39122 -81.37911 35038 ft 480 kts 12°
2026-05-07 16:17 31.45427 -81.35346 35022 ft 479 kts 12°
2026-05-07 16:17 31.51727 -81.32773 35012 ft 480 kts 12°
2026-05-07 16:18 31.58031 -81.30199 34979 ft 480 kts 12°
2026-05-07 16:18 31.64335 -81.27618 34973 ft 480 kts 12°
2026-05-07 16:19 31.70576 -81.25060 34951 ft 478 kts 12°
2026-05-07 16:19 31.76851 -81.22486 34927 ft 478 kts 12°
2026-05-07 16:20 31.83126 -81.19906 34901 ft 478 kts 12°
2026-05-07 16:20 31.89401 -81.17325 34883 ft 478 kts 12°
2026-05-07 16:21 31.95679 -81.14736 34875 ft 478 kts 12°
2026-05-07 16:21 32.01957 -81.12145 34872 ft 478 kts 12°
2026-05-07 16:22 32.08244 -81.09548 34870 ft 481 kts 12°
2026-05-07 16:22 32.14562 -81.06930 34960 ft 481 kts 12°
2026-05-07 16:23 32.20871 -81.04316 34957 ft 481 kts 12°
2026-05-07 16:23 32.27183 -81.01695 34956 ft 481 kts 12°
2026-05-07 16:24 32.32430 -80.99515 34960 ft 483 kts 12°
2026-05-07 16:24 32.38784 -80.96868 34965 ft 483 kts 12°
2026-05-07 16:25 32.45129 -80.94223 34966 ft 483 kts 12°
2026-05-07 16:25 32.51468 -80.91576 34967 ft 483 kts 12°
2026-05-07 16:26 32.57806 -80.88925 34967 ft 484 kts 12°
2026-05-07 16:26 32.64164 -80.86263 34966 ft 484 kts 12°
2026-05-07 16:27 32.70517 -80.83595 34961 ft 485 kts 13°
2026-05-07 16:27 32.76618 -80.79957 34953 ft 492 kts 22°
2026-05-07 16:28 32.82609 -80.76049 34974 ft 492 kts 21°
2026-05-07 16:28 32.88651 -80.72141 34955 ft 494 kts 21°
2026-05-07 16:29 32.94680 -80.68205 34954 ft 494 kts 21°
2026-05-07 16:29 33.00713 -80.64281 34953 ft 494 kts 21°
2026-05-07 16:30 33.06742 -80.60341 34920 ft 494 kts 21°
2026-05-07 16:30 33.12760 -80.56409 34578 ft 493 kts 21°
2026-05-07 16:30 33.15771 -80.54438 34253 ft 493 kts 22°
2026-05-07 16:31 33.18774 -80.52470 33928 ft 492 kts 22°
2026-05-07 16:31 33.21107 -80.50940 33651 ft 492 kts 22°
2026-05-07 16:31 33.24101 -80.48976 33291 ft 491 kts 22°
2026-05-07 16:31 33.27097 -80.47010 32939 ft 491 kts 22°
2026-05-07 16:32 33.30091 -80.45044 32595 ft 491 kts 22°
2026-05-07 16:32 33.33083 -80.43074 32285 ft 491 kts 21°
2026-05-07 16:32 33.36057 -80.41114 31943 ft 484 kts 21°
2026-05-07 16:32 33.38988 -80.39181 31594 ft 478 kts 21°
2026-05-07 16:33 33.41887 -80.37274 31254 ft 474 kts 21°
2026-05-07 16:33 33.44767 -80.35378 30922 ft 472 kts 21°
2026-05-07 16:33 33.47644 -80.33480 30594 ft 471 kts 21°
2026-05-07 16:33 33.50515 -80.31582 30253 ft 471 kts 21°
2026-05-07 16:34 33.53382 -80.29686 29905 ft 470 kts 21°
2026-05-07 16:34 33.56244 -80.27793 29503 ft 470 kts 21°
2026-05-07 16:34 33.59106 -80.25899 29154 ft 470 kts 20°
2026-05-07 16:34 33.61970 -80.24000 28767 ft 471 kts 20°
2026-05-07 16:35 33.64838 -80.22094 28383 ft 471 kts 20°
2026-05-07 16:35 33.67697 -80.20190 28005 ft 469 kts 20°
2026-05-07 16:35 33.70543 -80.18296 27620 ft 467 kts 20°
2026-05-07 16:35 33.73375 -80.16413 27238 ft 464 kts 20°
2026-05-07 16:36 33.76192 -80.14538 26868 ft 461 kts 20°
2026-05-07 16:36 33.78981 -80.12678 26510 ft 457 kts 20°
2026-05-07 16:36 33.81753 -80.10830 26153 ft 454 kts 20°
2026-05-07 16:36 33.84474 -80.09014 25830 ft 452 kts 20°
2026-05-07 16:37 33.87218 -80.07183 25478 ft 450 kts 20°
2026-05-07 16:37 33.89986 -80.05332 25128 ft 448 kts 20°
2026-05-07 16:37 33.92669 -80.03538 24784 ft 445 kts 19°
2026-05-07 16:37 33.95430 -80.02046 24459 ft 429 kts
2026-05-07 16:38 33.98278 -80.01208 24135 ft 411 kts 355°
2026-05-07 16:38 34.01058 -80.01213 23831 ft 395 kts 345°
2026-05-07 16:38 34.03796 -80.01593 23503 ft 386 kts 340°
2026-05-07 16:38 34.06381 -80.02286 23126 ft 376 kts 334°
2026-05-07 16:39 34.08831 -80.03280 22761 ft 367 kts 328°
2026-05-07 16:39 34.11085 -80.04529 22391 ft 360 kts 323°
2026-05-07 16:39 34.13301 -80.05958 22004 ft 359 kts 322°
2026-05-07 16:39 34.15566 -80.07343 21571 ft 360 kts 325°
2026-05-07 16:40 34.17826 -80.08628 21154 ft 358 kts 325°
2026-05-07 16:40 34.20060 -80.09916 20744 ft 354 kts 324°
2026-05-07 16:40 34.22256 -80.11229 20339 ft 351 kts 324°
2026-05-07 16:40 34.24434 -80.12533 19934 ft 348 kts 324°
2026-05-07 16:41 34.26605 -80.13814 19536 ft 346 kts 324°
2026-05-07 16:41 34.28763 -80.15084 19144 ft 344 kts 324°
2026-05-07 16:41 34.30907 -80.16353 18741 ft 342 kts 324°
2026-05-07 16:41 34.33030 -80.17615 18357 ft 340 kts 324°
2026-05-07 16:42 34.35151 -80.18873 17908 ft 338 kts 326°
2026-05-07 16:42 34.37232 -80.20106 17413 ft 337 kts 326°
2026-05-07 16:42 34.39334 -80.21353 16894 ft 336 kts 326°
2026-05-07 16:42 34.41427 -80.22596 16400 ft 334 kts 326°
2026-05-07 16:43 34.43508 -80.23834 15899 ft 333 kts 326°
2026-05-07 16:43 34.45584 -80.25068 15361 ft 332 kts 326°
2026-05-07 16:43 34.47659 -80.26303 14864 ft 332 kts 326°
2026-05-07 16:43 34.49730 -80.27535 14377 ft 331 kts 326°
2026-05-07 16:44 34.51794 -80.28765 13893 ft 331 kts 326°
2026-05-07 16:44 34.53855 -80.29993 13384 ft 330 kts 326°
2026-05-07 16:44 34.55911 -80.31219 12867 ft 329 kts 326°
2026-05-07 16:44 34.57957 -80.32439 12358 ft 327 kts 326°
2026-05-07 16:45 34.59992 -80.33662 11883 ft 323 kts 324°
2026-05-07 16:45 34.61789 -80.35200 11411 ft 313 kts 315°
2026-05-07 16:45 34.63488 -80.36853 10932 ft 313 kts 316°
2026-05-07 16:45 34.65191 -80.38494 10449 ft 312 kts 316°
2026-05-07 16:46 34.66893 -80.40126 10001 ft 312 kts 316°
2026-05-07 16:46 34.68591 -80.41759 9518 ft 311 kts 316°
2026-05-07 16:46 34.70271 -80.43391 9070 ft 308 kts 316°
2026-05-07 16:46 34.71920 -80.45016 8644 ft 304 kts 316°
2026-05-07 16:47 34.73556 -80.46629 8235 ft 301 kts 316°
2026-05-07 16:47 34.75182 -80.48223 7824 ft 299 kts 317°
2026-05-07 16:47 34.76799 -80.49808 7410 ft 297 kts 317°
2026-05-07 16:47 34.78402 -80.51382 7021 ft 294 kts 317°
2026-05-07 16:48 34.79989 -80.52943 6674 ft 292 kts 317°
2026-05-07 16:48 34.81564 -80.54492 6332 ft 290 kts 317°
2026-05-07 16:48 34.83126 -80.56034 6012 ft 288 kts 317°
2026-05-07 16:48 34.84675 -80.57567 5991 ft 288 kts 317°
2026-05-07 16:49 34.86233 -80.59109 5994 ft 288 kts 317°
2026-05-07 16:49 34.87769 -80.60670 5997 ft 285 kts 311°
2026-05-07 16:49 34.88717 -80.62703 6013 ft 282 kts 284°
2026-05-07 16:49 34.88788 -80.65079 6003 ft 283 kts 262°
2026-05-07 16:50 34.88387 -80.67430 6003 ft 284 kts 258°
2026-05-07 16:50 34.87916 -80.69764 6005 ft 284 kts 258°
2026-05-07 16:50 34.87470 -80.72097 6001 ft 283 kts 259°
2026-05-07 16:50 34.87033 -80.74436 6007 ft 283 kts 259°
2026-05-07 16:51 34.86597 -80.76782 6005 ft 284 kts 259°
2026-05-07 16:51 34.86163 -80.79125 6008 ft 283 kts 259°
2026-05-07 16:51 34.85732 -80.81457 6013 ft 282 kts 259°
2026-05-07 16:51 34.85301 -80.83794 6010 ft 284 kts 259°
2026-05-07 16:52 34.84870 -80.86144 6005 ft 285 kts 259°
2026-05-07 16:52 34.84474 -80.88494 6004 ft 282 kts 266°
2026-05-07 16:52 34.84828 -80.90808 5770 ft 282 kts 297°
2026-05-07 16:52 34.86189 -80.92525 5519 ft 291 kts 327°
2026-05-07 16:53 34.88169 -80.93127 5306 ft 303 kts 355°
2026-05-07 16:53 34.90295 -80.92880 5292 ft 310 kts
2026-05-07 16:53 34.92425 -80.92423 5288 ft 308 kts
2026-05-07 16:53 34.94549 -80.92216 5293 ft 307 kts 359°
2026-05-07 16:54 34.96653 -80.92053 5291 ft 303 kts 359°
2026-05-07 16:54 34.98775 -80.91895 5284 ft 294 kts 359°
2026-05-07 16:54 35.00792 -80.91759 5272 ft 286 kts 357°
2026-05-07 16:54 35.02716 -80.91768 5309 ft 259 kts 353°
2026-05-07 16:55 35.04390 -80.91933 5292 ft 226 kts 349°
2026-05-07 16:55 35.05851 -80.92062 5248 ft 197 kts 350°
2026-05-07 16:55 35.07177 -80.92164 4969 ft 186 kts 350°
2026-05-07 16:55 35.08492 -80.92275 4719 ft 197 kts 350°
2026-05-07 16:56 35.09913 -80.92423 4475 ft 212 kts 350°
2026-05-07 16:56 35.11426 -80.92600 4266 ft 222 kts 350°
2026-05-07 16:56 35.14626 -80.92892 3327 ft 232 kts 354°
2026-05-07 16:57 35.16233 -80.93032 2203 ft 232 kts 354°
2026-05-07 16:57 35.17786 -80.93208 1491 ft 212 kts 354°
2026-05-07 16:57 35.19190 -80.93333 954 ft 183 kts 354°
2026-05-07 16:57 35.20319 -80.93439 715 ft 145 kts 356°
2026-05-07 16:58 35.21150 -80.93507 722 ft 93 kts 356°
2026-05-07 16:58 35.21552 -80.93536 726 ft 29 kts 356°
2026-05-07 16:58 35.21714 -80.93582 728 ft 17 kts 298°
2026-05-07 16:58 35.21693 -80.93662 726 ft 0 kts 220°
2026-05-07 16:59 35.21691 -80.93665 726 ft 1 kts 220°
2026-05-07 16:59 35.21677 -80.93679 727 ft 4 kts 220°
2026-05-07 16:59 35.21651 -80.93706 725 ft 6 kts 220°
2026-05-07 16:59 35.21630 -80.93750 725 ft 6 kts 270°
2026-05-07 17:00 35.21651 -80.93797 725 ft 7 kts 308°
2026-05-07 17:00 35.21692 -80.93855 726 ft 11 kts 314°
2026-05-07 17:00 35.21752 -80.93923 725 ft 9 kts 317°
2026-05-07 17:00 35.21806 -80.93942 726 ft 8 kts 30°
2026-05-07 17:01 35.21848 -80.93921 727 ft 7 kts 346°
2026-05-07 17:01 35.21876 -80.93941 728 ft 7 kts 341°
2026-05-07 17:01 35.21918 -80.93917 727 ft 7 kts 44°
2026-05-07 17:01 35.21960 -80.93860 728 ft 11 kts 50°
2026-05-07 17:02 35.22024 -80.93801 728 ft 12 kts 10°
2026-05-07 17:02 35.22080 -80.93821 728 ft 5 kts 287°
2026-05-07 17:02 35.22077 -80.93860 731 ft 5 kts 262°
2026-05-07 17:02 35.22074 -80.93880 728 ft 2 kts 261°
2026-05-07 17:03 35.22074 -80.93883 730 ft 0 kts 262°